FW7644 Weather Reports


time (UTC)temp
C
wind
direction
speed
KPH
gust
KPH
rain 1hr
cm
rain 24hr
cm
rain mn
cm
humidity
%
barometer
mb
20260509130801 16 0.0 0.0 0.56 3.86 1.27 99 1017.0
20260509130259 16 0.0 0.0 0.53 3.84 1.24 99 1016.8
20260509125757 16 0.0 0.0 0.64 3.84 1.24 99 1016.7
20260509125255 15 0.0 0.0 0.64 3.84 1.24 99 1016.6
20260509124753 15 0.0 0.0 0.66 3.78 1.19 99 1016.6
20260509124252 15 0.0 0.0 0.61 3.73 1.14 99 1016.9
20260509123750 15 0.0 0.0 0.64 3.68 1.09 99 1017.3
20260509123248 15 0.0 0.0 0.58 3.63 1.04 99 1017.2
20260509122746 15 0.0 0.0 0.56 3.56 0.97 99 1017.1
20260509122244 14 0.0 0.0 0.53 3.53 0.94 99 1017.1
20260509121742 13 0.0 0.0 0.51 3.48 0.89 99 1017.2
20260509121240 13 0.0 0.0 0.46 3.43 0.84 99 1017.2
20260509120738 13 0.0 0.0 0.46 3.38 0.79 99 1017.0
20260509120236 13 0.0 0.0 0.41 3.33 0.76 99 1017.0
20260509115734 13 0.0 0.0 0.41 3.28 0.71 99 1016.9
20260509115232 13 0.0 0.0 0.36 3.23 0.66 99 1016.8
20260509114730 13 0.0 0.0 0.33 3.17 0.61 99 1016.6
20260509114228 13 0.0 0.0 0.30 3.15 0.58 99 1016.5
20260509113726 13 0.0 0.0 0.25 3.10 0.53 99 1016.4
20260509113224 13 0.0 0.0 0.23 3.07 0.51 99 1016.5
20260509112722 13 0.0 0.0 0.20 3.02 0.46 99 1016.5
20260509112221 13 0.0 0.0 0.18 3.00 0.43 99 1016.7
20260509111719 13 0.0 0.0 0.18 3.00 0.43 99 1016.6
20260509111217 13 0.0 0.0 0.15 2.97 0.41 99 1016.4
20260509110716 13 0.0 0.0 0.15 2.97 0.41 99 1016.3
20260509110214 13 0.0 0.0 0.13 2.95 0.38 99 1016.5
20260509105713 13 0.0 0.0 0.10 2.92 0.36 99 1016.0
20260509105211 13 0.0 0.0 0.08 2.90 0.33 99 1015.7
20260509104709 13 0.0 0.0 0.05 2.87 0.30 99 1015.6
20260509104207 13 0.0 0.0 0.03 2.84 0.28 99 1015.5
20260509103706 13 0.0 0.0 0.05 2.84 0.28 99 1015.5
20260509103204 13 0.0 0.0 0.05 2.84 0.28 99 1015.6
20260509102702 13 0.0 0.0 0.13 2.84 0.28 99 1015.6
20260509102201 13 0.0 0.0 0.10 2.82 0.25 99 1015.4
20260509101659 13 0.0 0.0 0.18 2.82 0.25 99 1015.2
20260509101157 13 0.0 0.0 0.18 2.82 0.25 99 1015.0
20260509100655 13 0.0 0.0 0.20 2.82 0.25 99 1014.7
20260509100154 13 0.0 0.0 0.20 2.82 0.25 99 1014.6
20260509095652 13 0.0 0.0 0.20 2.82 0.25 99 1014.6
20260509095150 13 0.0 0.0 0.20 2.82 0.25 99 1014.5
20260509094649 13 0.0 0.0 0.20 2.82 0.25 99 1014.6
20260509094147 13 0.0 0.0 0.20 2.82 0.25 99 1014.7
20260509093645 13 0.0 0.0 0.20 2.82 0.25 99 1014.9
20260509093143 13 0.0 0.0 0.18 2.79 0.23 99 1014.9
20260509092642 13 0.0 0.0 0.15 2.77 0.20 99 1014.9
20260509092140 13 0.0 0.0 0.10 2.72 0.15 99 1015.0
20260509091638 13 0.0 0.0 0.05 2.67 0.10 99 1014.9
20260509091137 13 0.0 0.0 0.03 2.64 0.08 99 1014.9
20260509090635 13 0.0 0.0 0.03 2.64 0.08 99 1015.0
20260509090133 13 0.0 0.0 0.00 2.62 0.05 99 1014.9
20260509085632 13 0.0 0.0 0.00 2.62 0.05 99 1014.9
20260509085130 13 0.0 0.0 0.00 2.62 0.05 99 1014.8
20260509084628 13 0.0 0.0 0.00 2.62 0.05 99 1014.7
20260509084127 13 0.0 0.0 0.00 2.62 0.05 99 1014.5
20260509083625 13 0.0 0.0 0.00 2.62 0.05 99 1014.5
20260509083123 13 0.0 0.0 0.00 2.62 0.05 99 1014.4
20260509082622 13 0.0 0.0 0.00 2.62 0.05 99 1014.3
20260509082120 13 0.0 0.0 0.00 2.62 0.05 99 1014.3
20260509081618 13 0.0 0.0 0.00 2.62 0.05 99 1014.3
20260509081117 13 0.0 0.0 0.00 2.62 0.05 99 1014.2
20260509080615 14 0.0 0.0 0.00 2.62 0.05 99 1014.2
20260509080113 14 0.0 0.0 0.00 2.62 0.05 99 1014.1
20260509075611 15 0.0 0.0 0.00 2.62 0.05 99 1014.1
20260509075110 16 0.0 0.0 0.00 2.62 0.05 99 1013.9
20260509074608 16 0.0 0.0 0.00 2.62 0.05 99 1013.8
20260509074106 16 0.0 0.0 0.00 2.62 0.05 99 1013.7
20260509073604 16 0.0 0.0 0.00 2.62 0.05 99 1013.6
20260509073103 16 0.0 0.0 0.00 2.62 0.05 99 1013.5
20260509072601 16 0.0 0.0 0.00 2.62 0.05 99 1013.5
20260509072100 16 0.0 0.0 0.00 2.62 0.05 99 1013.5
20260509071558 16 0.0 0.0 0.00 2.62 0.05 99 1013.5
20260509071057 16 0.0 0.0 0.00 2.62 0.05 99 1013.5
20260509070556 16 0.0 0.0 0.00 2.62 0.05 99 1013.5
20260509070053 16 0.0 0.0 0.00 2.62 0.05 99 1013.5
20260509065551 16 0.0 0.0 0.00 2.62 0.05 99 1013.5
20260509065050 16 0.0 0.0 0.00 2.62 0.05 99 1013.5
20260509064548 16 0.0 0.0 0.00 2.62 0.05 99 1013.6
20260509064046 16 0.0 0.0 0.00 2.62 0.05 99 1013.6
20260509063544 16 0.0 0.0 0.00 2.62 0.05 99 1013.5
20260509063043 16 0.0 0.0 0.00 2.62 0.05 99 1013.4
20260509062541 16 0.0 0.0 0.00 2.62 0.05 99 1013.4
20260509062039 16 0.0 0.0 0.00 2.62 0.05 99 1013.4
20260509061537 16 0.0 0.0 0.00 2.62 0.05 99 1013.5
20260509061036 16 0.0 0.0 0.00 2.62 0.05 99 1013.5
20260509060534 16 0.0 0.0 0.00 2.62 0.05 99 1013.4
20260509060033 16 0.0 0.0 0.00 2.62 0.05 99 1013.3
20260509055531 16 0.0 0.0 0.00 2.62 0.05 99 1013.2
20260509055029 16 0.0 0.0 0.00 2.62 0.05 99 1013.2
20260509054527 16 0.0 0.0 0.00 2.62 0.05 99 1013.2
20260509054026 16 0.0 0.0 0.00 2.62 0.05 99 1013.2
20260509053524 16 0.0 0.0 0.00 2.62 0.05 99 1013.1
20260509053023 16 0.0 0.0 0.00 2.62 0.05 99 1013.1
20260509052521 16 0.0 0.0 0.00 2.62 0.05 99 1013.2
20260509052019 16 0.0 0.0 0.00 2.62 0.05 99 1013.4
20260509051517 16 0.0 0.0 0.00 2.62 0.05 99 1013.4
20260509051016 16 0.0 0.0 0.00 2.62 0.05 99 1013.4
20260509050514 16 0.0 0.0 0.00 2.62 0.05 99 1013.4
20260509050012 16 0.0 0.0 0.00 2.62 0.05 99 1013.5
20260509045510 16 0.0 0.0 0.00 2.62 0.05 99 1013.7
20260509045008 16 0.0 0.0 0.00 2.62 0.05 99 1013.8
20260509044506 16 0.0 0.0 0.00 2.62 0.05 99 1013.8
20260509044005 16 0.0 0.0 0.00 2.62 0.05 99 1013.8
20260509043503 16 0.0 0.0 0.03 2.62 0.05 99 1013.8
20260509043001 16 0.0 0.0 0.03 2.62 0.05 99 1013.9
20260509042500 16 0.0 0.0 0.05 2.62 0.05 99 1013.9
20260509041958 15 0.0 0.0 0.05 2.62 0.05 99 1013.9
20260509041456 15 0.0 0.0 0.05 2.62 0.05 99 1013.9
20260509040955 15 0.0 0.0 0.05 2.62 0.05 99 1013.9
20260509040453 15 0.0 0.0 0.05 2.62 0.05 99 1014.0
20260509035951 15 0.0 0.0 0.10 2.62 0.05 99 1013.9
20260509035449 15 0.0 0.0 0.10 2.62 0.05 99 1013.8
20260509034948 15 0.0 0.0 0.10 2.62 0.05 99 1013.9
20260509034446 15 0.0 0.0 0.10 2.62 0.05 99 1013.9
20260509033944 15 0.0 0.0 0.13 2.62 0.05 99 1013.9
20260509033442 15 0.0 0.0 0.13 2.62 0.05 99 1013.9
20260509032941 15 0.0 0.0 0.28 2.59 0.03 99 1014.0
20260509032440 15 0.0 0.0 0.25 2.57 0.00 99 1014.1
20260509031937 15 0.0 0.0 0.36 2.57 0.00 99 1014.1
20260509031436 15 0.0 0.0 0.36 2.57 0.00 99 1014.1
20260509030934 15 0.0 0.0 0.46 2.57 0.00 99 1014.2
20260509030433 15 0.0 0.0 0.46 2.57 0.00 99 1014.2
20260509025931 15 0.0 0.0 0.56 2.57 2.57 99 1014.2
20260509025429 15 0.0 0.0 0.56 2.57 2.57 99 1014.1
20260509024928 15 0.0 0.0 0.69 2.51 2.51 99 1014.1
20260509024426 15 0.0 0.0 0.69 2.51 2.51 99 1014.1
20260509023924 15 0.0 0.0 0.84 2.51 2.51 99 1014.1
20260509023423 15 0.0 0.0 0.81 2.49 2.49 99 1014.2
20260509022921 15 0.0 0.0 0.89 2.46 2.46 99 1014.1
20260509022420 15 0.0 0.0 0.79 2.39 2.39 99 1014.2
20260509021918 15 0.0 0.0 0.84 2.34 2.34 99 1014.1
20260509021416 15 0.0 0.0 0.81 2.31 2.31 99 1014.2
20260509020915 15 0.0 0.0 0.84 2.24 2.24 99 1014.4
20260509020413 15 0.0 0.0 0.79 2.18 2.18 99 1014.5
20260509015911 15 0.0 0.0 0.84 2.13 2.13 99 1014.5
20260509015410 15 0.0 0.0 0.79 2.08 2.08 99 1014.5
20260509014908 15 0.0 0.0 0.84 2.03 2.03 99 1014.6
20260509014406 15 0.0 0.0 0.76 1.93 1.93 99 1015.0
20260509013904 15 0.0 0.0 0.71 1.85 1.85 99 1015.1
20260509013402 15 0.0 0.0 0.58 1.73 1.73 99 1015.1
20260509012900 15 0.0 0.0 0.56 1.68 1.68 99 1014.7
20260509012358 15 0.0 0.0 0.51 1.63 1.63 99 1014.5
20260509011856 15 0.0 0.0 0.51 1.57 1.57 99 1014.4
20260509011354 15 0.0 0.0 0.46 1.52 1.52 99 1014.5
20260509010852 15 0.0 0.0 0.46 1.47 1.47 99 1014.5
20260509010350 15 0.0 0.0 0.41 1.42 1.42 99 1014.6
20260509005847 15 0.0 0.0 0.41 1.37 1.37 99 1014.7
20260509005346 15 0.0 0.0 0.36 1.32 1.32 99 1014.6
20260509004844 15 0.0 0.0 0.41 1.27 1.27 99 1014.6
20260509004342 15 0.0 0.0 0.36 1.22 1.22 99 1014.6
20260509003839 15 0.0 0.0 0.36 1.17 1.17 99 1014.5
20260509003337 15 0.0 0.0 0.33 1.14 1.14 99 1014.5
20260509002835 15 0.0 0.0 0.36 1.12 1.12 99 1014.4
20260509002334 15 0.0 0.0 0.36 1.12 1.12 99 1014.5
20260509001831 15 0.0 0.0 0.38 1.12 1.12 99 1014.3
20260509001329 15 0.0 0.0 0.36 1.09 1.09 99 1014.2
20260509000827 15 0.0 0.0 0.38 1.07 1.07 99 1014.1
20260509000326 15 0.0 0.0 0.36 1.04 1.04 99 1014.1
20260508235824 15 0.0 0.0 0.38 1.02 1.02 99 1013.8
20260508235322 15 0.0 0.0 0.33 0.97 0.97 99 1013.8
20260508234821 15 0.0 0.0 0.33 0.94 0.94 99 1013.5
20260508234319 15 0.0 0.0 0.30 0.91 0.91 99 1013.4
20260508233817 15 0.0 0.0 0.25 0.86 0.86 99 1013.1
20260508233315 15 0.0 0.0 0.20 0.81 0.81 99 1012.8
20260508232813 16 0.0 0.0 0.23 0.81 0.81 99 1011.9
20260508232312 16 0.0 0.0 0.20 0.79 0.79 99 1012.3
20260508231810 16 0.0 0.0 0.18 0.79 0.79 99 1012.7
20260508231308 16 0.0 0.0 0.15 0.76 0.76 99 1012.9
20260508230806 16 0.0 0.0 0.15 0.76 0.76 99 1013.2
20260508230304 16 0.0 0.0 0.10 0.71 0.71 99 1013.5
20260508225802 16 0.0 0.0 0.08 0.69 0.69 99 1013.5
20260508225300 16 0.0 0.0 0.08 0.69 0.69 99 1013.5
20260508224758 16 0.0 0.0 0.05 0.66 0.66 99 1013.5
20260508224256 16 0.0 0.0 0.03 0.64 0.64 99 1013.5
20260508223754 16 0.0 0.0 0.03 0.64 0.64 99 1013.5
20260508223252 16 0.0 0.0 0.03 0.64 0.64 99 1013.5
20260508222750 16 0.0 0.0 0.00 0.61 0.61 99 1013.6
20260508222248 16 0.0 0.0 0.00 0.61 0.61 99 1013.6
20260508221746 16 0.0 0.0 0.03 0.61 0.61 99 1013.4
20260508221244 16 0.0 0.0 0.03 0.61 0.61 99 1013.4
20260508220742 16 0.0 0.0 0.05 0.61 0.61 99 1013.3
20260508220241 16 0.0 0.0 0.05 0.61 0.61 99 1013.1
20260508215739 16 0.0 0.0 0.05 0.61 0.61 99 1012.9
20260508215237 16 0.0 0.0 0.05 0.61 0.61 99 1012.2
20260508214735 16 0.0 0.0 0.05 0.61 0.61 99 1011.8
20260508214233 16 0.0 0.0 0.05 0.61 0.61 99 1011.6
20260508213731 16 0.0 0.0 0.05 0.61 0.61 99 1011.3
20260508213230 16 0.0 0.0 0.05 0.61 0.61 99 1011.4
20260508212727 16 0.0 0.0 0.05 0.61 0.61 99 1011.2
20260508212226 16 0.0 0.0 0.05 0.61 0.61 99 1011.3
20260508211724 16 0.0 0.0 0.05 0.61 0.61 99 1010.8
20260508211222 16 0.0 0.0 0.03 0.58 0.58 99 1011.0
20260508210720 16 0.0 0.0 0.03 0.58 0.58 99 1011.3
20260508210218 16 0.0 0.0 0.03 0.58 0.58 99 1011.5
20260508205716 16 0.0 0.0 0.00 0.56 0.56 99 1012.0
20260508205214 16 0.0 0.0 0.00 0.56 0.56 99 1012.4
20260508204712 16 0.0 0.0 0.00 0.56 0.56 99 1012.4
20260508204211 16 0.0 0.0 0.00 0.56 0.56 99 1012.3
20260508203709 16 0.0 0.0 0.00 0.56 0.56 99 1012.3
20260508203207 16 0.0 0.0 0.00 0.56 0.56 99 1012.2
20260508202705 16 0.0 0.0 0.03 0.56 0.56 99 1012.1
20260508202203 16 0.0 0.0 0.03 0.56 0.56 99 1012.2
20260508201702 16 0.0 0.0 0.03 0.56 0.56 99 1012.3
20260508201200 16 0.0 0.0 0.03 0.56 0.56 99 1012.3
20260508200659 16 0.0 0.0 0.05 0.56 0.56 99 1012.1
20260508200157 16 0.0 0.0 0.05 0.56 0.56 99 1011.7
20260508195655 16 0.0 0.0 0.08 0.56 0.56 99 1011.6
20260508195153 16 0.0 0.0 0.08 0.56 0.56 99 1011.3
20260508194651 16 0.0 0.0 0.10 0.56 0.56 99 1011.3
20260508194149 16 0.0 0.0 0.10 0.56 0.56 99 1011.3
20260508193648 16 0.0 0.0 0.13 0.56 0.56 99 1011.1
20260508193145 16 0.0 0.0 0.13 0.56 0.56 99 1011.0
20260508192643 16 0.0 0.0 0.18 0.56 0.56 99 1011.5
20260508192141 16 0.0 0.0 0.15 0.53 0.53 99 1012.6
20260508191640 16 0.0 0.0 0.15 0.53 0.53 99 1013.2
20260508191138 16 0.0 0.0 0.15 0.53 0.53 99 1013.5
20260508190636 16 0.0 0.0 0.15 0.51 0.51 99 1013.6
20260508190134 16 0.0 0.0 0.15 0.51 0.51 99 1013.7
20260508185632 16 0.0 0.0 0.13 0.48 0.48 99 1013.8
20260508185130 16 0.0 0.0 0.13 0.48 0.48 99 1013.8
20260508184629 16 0.0 0.0 0.13 0.48 0.48 99 1013.8
20260508184127 16 0.0 0.0 0.10 0.46 0.46 99 1013.9
20260508183625 16 0.0 0.0 0.08 0.43 0.43 99 1013.7
20260508183124 16 0.0 0.0 0.08 0.43 0.43 99 1013.8
20260508182622 16 0.0 0.0 0.05 0.41 0.41 99 1013.9
20260508182120 16 0.0 0.0 0.05 0.41 0.41 99 1013.8
20260508181618 16 0.0 0.0 0.05 0.38 0.38 99 1013.8
20260508181116 16 0.0 0.0 0.05 0.38 0.38 99 1013.9
20260508180615 16 0.0 0.0 0.03 0.36 0.36 99 1014.0
20260508180113 16 0.0 0.0 0.03 0.36 0.36 99 1013.8
20260508175611 16 0.0 0.0 0.08 0.36 0.36 99 1013.8
20260508175109 16 0.0 0.0 0.08 0.36 0.36 99 1013.7
20260508174607 16 0.0 0.0 0.13 0.36 0.36 99 1013.6
20260508174105 16 0.0 0.0 0.13 0.36 0.36 99 1013.5
20260508173603 16 0.0 0.0 0.18 0.36 0.36 99 1013.3
20260508173101 16 0.0 0.0 0.18 0.36 0.36 99 1013.1
20260508172600 16 0.0 0.0 0.20 0.36 0.36 99 1013.1
20260508172058 16 0.0 0.0 0.20 0.36 0.36 99 1013.1
20260508171556 16 0.0 0.0 0.23 0.33 0.33 99 1013.2
20260508171055 16 0.0 0.0 0.23 0.33 0.33 99 1013.1
20260508170553 16 0.0 0.0 0.28 0.33 0.33 99 1013.3
20260508170052 16 0.0 0.0 0.28 0.33 0.33 99 1013.6
20260508165550 16 0.0 0.0 0.28 0.30 0.30 99 1013.8
20260508165048 16 0.0 0.0 0.25 0.28 0.28 99 1013.9
20260508164546 16 0.0 0.0 0.25 0.28 0.28 99 1013.9
20260508164044 16 0.0 0.0 0.23 0.25 0.25 99 1013.9
20260508163542 16 0.0 0.0 0.20 0.23 0.23 99 1014.1
20260508163040 16 0.0 0.0 0.18 0.20 0.20 99 1014.1
20260508162539 16 0.0 0.0 0.18 0.18 0.18 99 1014.1
20260508162036 16 0.0 0.0 0.15 0.15 0.15 99 1014.2
20260508161535 16 0.0 0.0 0.13 0.13 0.13 99 1014.1
20260508161033 16 0.0 0.0 0.10 0.10 0.10 99 1013.9
20260508160531 16 0.0 0.0 0.08 0.08 0.08 99 1013.9
20260508160029 17 0.0 0.0 0.05 0.05 0.05 99 1013.9
20260508155527 17 0.0 0.0 0.03 0.03 0.03 99 1013.9
20260508155026 17 0.0 0.0 0.03 0.03 0.03 99 1013.9
20260508154524 17 0.0 0.0 0.03 0.03 0.03 99 1013.9
20260508154022 17 0.0 0.0 0.03 0.03 0.03 99 1013.8
20260508153520 17 0.0 0.0 0.03 0.03 0.03 99 1013.8
20260508153019 17 0.0 0.0 0.03 0.03 0.03 99 1013.7
20260508152517 17 0.0 0.0 0.00 0.00 0.00 99 1013.6
20260508152015 17 0.0 0.0 0.00 0.00 0.00 99 1013.6
20260508151513 17 0.0 0.0 0.00 0.00 0.00 99 1013.7
20260508151012 17 0.0 0.0 0.00 0.00 0.00 99 1013.6
20260508150510 17 0.0 0.0 0.00 0.00 0.00 99 1013.7
20260508150008 17 0.0 0.0 0.00 0.00 0.00 99 1013.7
20260508145506 17 0.0 0.0 0.00 0.00 0.00 99 1013.7
20260508145005 17 0.0 0.0 0.00 0.00 0.00 99 1014.0
20260508144503 18 0.0 0.0 0.00 0.00 0.00 99 1014.1
20260508144000 18 0.0 0.0 0.00 0.00 0.00 99 1014.4
20260508143459 18 0.0 0.0 0.00 0.00 0.00 99 1014.6
20260508142957 19 0.0 0.0 0.00 0.00 0.00 94 1014.6
20260508142455 19 0.0 0.0 0.00 0.00 0.00 92 1014.6
20260508141954 19 0.0 0.0 0.00 0.00 0.00 92 1014.8
20260508141452 19 0.0 0.0 0.00 0.00 0.00 90 1015.0
20260508140950 20 0.0 0.0 0.00 0.00 0.00 90 1015.0
20260508140448 20 0.0 0.0 0.00 0.00 0.00 89 1015.1
20260508135946 20 0.0 0.0 0.00 0.00 0.00 88 1014.9
20260508135444 20 0.0 0.0 0.00 0.00 0.00 86 1015.0
20260508134942 20 0.0 0.0 0.00 0.00 0.00 85 1014.9
20260508134441 20 0.0 0.0 0.00 0.00 0.00 85 1015.0
20260508133938 20 0.0 0.0 0.00 0.00 0.00 86 1015.1
20260508133436 20 0.0 0.0 0.00 0.00 0.00 85 1015.0
20260508132934 20 0.0 0.0 0.00 0.00 0.00 87 1014.9
20260508132432 20 0.0 0.0 0.00 0.00 0.00 89 1014.9
20260508131929 20 0.0 0.0 0.00 0.00 0.00 90 1015.0
20260508131427 20 0.0 0.0 0.00 0.00 0.00 89 1015.0